London Gatwick, United Kingdom

12:03 AM BST on July 30, 2016 (GMT +0100)
Gatwick

Weather History for EGKK - November, 2012

Change the Weather History Date:

Sunday, November 25, 2012

  Actual Average Record
Temperature  
Mean Temperature 50 °F -  
Max Temperature 55 °F 47 °F 59 °F (2006)
Min Temperature 44 °F 34 °F 28 °F (2014)
Degree Days  
Heating Degree Days 16    
Moisture  
Dew Point 44 °F    
Average Humidity 78    
Maximum Humidity 94    
Minimum Humidity 66    
Precipitation  
Precipitation 0.00 in 0.10 in - ()
Sea Level Pressure  
Sea Level Pressure 29.62 in    
Wind  
Wind Speed 16 mph ()    
Max Wind Speed 30 mph    
Max Gust Speed 46 mph    
Visibility 5.9 miles    
Events Rain    
Averages and records for this station are not official NWS values.
T = Trace of Precipitation, MM = Missing Value Source: Averaged Metar Reports

Daily Weather History Graph

Daily Weather History Graph

Search for Another Location

Airport or City:

Trip Planner

Search our weather history database for the weather conditions in past years. The results will help you decide how hot, cold, wet, or windy it might be!

Date:

Astronomy

Nov. 25, 2012 Rise Set
Actual Time 7:34 AM GMT 4:01 PM GMT
Civil Twilight 6:56 AM GMT 4:39 PM GMT
Nautical Twilight 6:14 AM GMT 5:20 PM GMT
Astronomical Twilight 5:35 AM GMT 6:00 PM GMT
Moon 2:22 PM GMT (11/25) 4:19 AM GMT (11/25)
Length of Visible Light 9h 42m
Length of Day
8h 26m
Waxing Gibbous, 91% of the Moon is Illuminated
Nov 25
Waxing Gibbous
Nov 28
Full
Dec 6
Last Quarter
Dec 13
New
Dec 20
First Quarter

Hourly Weather History & Observations

Time (GMT) Temp. Windchill Dew Point Humidity Pressure Visibility Wind Dir Wind Speed Gust Speed Precip Events Conditions
12:20 AM 55.4 °F - 51.8 °F 88% 29.30 in 2.5 mi South 18.4 mph 35.7 mph N/A Rain Rain
12:50 AM 55.4 °F - 51.8 °F 88% 29.27 in 3.7 mi SSW 19.6 mph 36.8 mph N/A Rain Light Rain
1:20 AM 55.4 °F - 51.8 °F 88% 29.24 in 4.3 mi SSW 19.6 mph 32.2 mph N/A Rain Light Rain
1:50 AM 53.6 °F - 50.0 °F 88% 29.24 in 5.6 mi SW 20.7 mph 42.6 mph N/A   Mostly Cloudy
2:20 AM 53.6 °F - 50.0 °F 88% 29.30 in 3.7 mi SW 16.1 mph - N/A Rain Light Rain
2:50 AM 53.6 °F - 48.2 °F 82% 29.36 in 6.2 mi WSW 19.6 mph 34.5 mph N/A   Mostly Cloudy
3:20 AM 51.8 °F - 46.4 °F 82% 29.39 in 6.2 mi WSW 25.3 mph - N/A   Mostly Cloudy
3:50 AM 50.0 °F - 44.6 °F 82% 29.42 in 6.2 mi WSW 26.5 mph 40.3 mph N/A   Mostly Cloudy
4:20 AM 50.0 °F - 42.8 °F 76% 29.47 in 6.2 mi WSW 29.9 mph 46.0 mph N/A   Mostly Cloudy
4:50 AM 48.2 °F - 41.0 °F 76% 29.50 in 6.2 mi West 29.9 mph - N/A   Mostly Cloudy
5:20 AM 48.2 °F - 39.2 °F 71% 29.53 in 6.2 mi WSW 28.8 mph 42.6 mph N/A   Mostly Cloudy
5:50 AM 48.2 °F - 39.2 °F 71% 29.56 in 6.2 mi WSW 24.2 mph 36.8 mph N/A   Mostly Cloudy
6:20 AM 46.4 °F 38.7 °F 37.4 °F 71% 29.59 in 6.2 mi WSW 20.7 mph - N/A   Mostly Cloudy
6:50 AM 46.4 °F 39.0 °F 35.6 °F 66% 29.62 in 6.2 mi WSW 19.6 mph 32.2 mph N/A   Scattered Clouds
7:20 AM 46.4 °F 39.2 °F 37.4 °F 71% 29.65 in 6.2 mi WSW 18.4 mph 32.2 mph N/A   Mostly Cloudy
7:50 AM 44.6 °F 37.2 °F 35.6 °F 71% 29.68 in 6.2 mi WSW 17.3 mph - N/A   Mostly Cloudy
8:20 AM 44.6 °F 37.2 °F 35.6 °F 71% 29.68 in 6.2 mi WSW 17.3 mph - N/A   Partly Cloudy
8:50 AM 46.4 °F 39.5 °F 35.6 °F 66% 29.71 in - WSW 17.3 mph - N/A   Clear
9:20 AM 46.4 °F 39.2 °F 35.6 °F 66% 29.71 in - SW 18.4 mph - N/A   Clear
9:50 AM 48.2 °F - 37.4 °F 66% 29.74 in - WSW 16.1 mph - N/A   Clear
10:20 AM 50.0 °F - 39.2 °F 66% 29.74 in - WSW 15.0 mph - N/A   Clear
10:50 AM 50.0 °F - 39.2 °F 66% 29.74 in 6.2 mi WSW 15.0 mph - N/A   Scattered Clouds
11:20 AM 50.0 °F - 41.0 °F 71% 29.74 in 6.2 mi WSW 12.7 mph - N/A   Partly Cloudy
11:50 AM 51.8 °F - 42.8 °F 71% 29.74 in 6.2 mi WSW 15.0 mph - N/A   Partly Cloudy
12:20 PM 51.8 °F - 42.8 °F 71% 29.74 in 6.2 mi SW 15.0 mph - N/A   Scattered Clouds
12:50 PM 51.8 °F - 42.8 °F 71% 29.74 in 6.2 mi SW 13.8 mph - N/A   Scattered Clouds
1:20 PM 51.8 °F - 44.6 °F 76% 29.74 in 6.2 mi SW 10.4 mph - N/A Rain Light Rain Showers
1:50 PM 50.0 °F - 44.6 °F 82% 29.74 in 6.2 mi SW 9.2 mph - N/A Rain Rain Showers
2:20 PM 50.0 °F - 46.4 °F 87% 29.74 in 6.2 mi SW 9.2 mph - N/A   Mostly Cloudy
2:50 PM 50.0 °F - 46.4 °F 87% 29.74 in 6.2 mi SSW 9.2 mph - N/A   Scattered Clouds
3:20 PM 50.0 °F - 46.4 °F 87% 29.74 in 6.2 mi SW 9.2 mph - N/A Rain Light Rain
3:50 PM 50.0 °F - 46.4 °F 87% 29.74 in 6.2 mi SW 6.9 mph - N/A Rain Light Rain Showers
4:20 PM 50.0 °F - 48.2 °F 94% 29.71 in 5.0 mi SSW 11.5 mph - N/A Rain Light Rain Showers
4:50 PM 50.0 °F - 48.2 °F 94% 29.71 in 3.7 mi SW 6.9 mph - N/A Rain Light Rain
5:20 PM 50.0 °F - 48.2 °F 94% 29.71 in 6.2 mi SSW 6.9 mph - N/A   Scattered Clouds
5:50 PM 51.8 °F - 46.4 °F 82% 29.71 in 6.2 mi SSW 9.2 mph 20.7 mph N/A   Scattered Clouds
6:20 PM 51.8 °F - 46.4 °F 82% 29.71 in 6.2 mi SSW 10.4 mph 21.9 mph N/A   Scattered Clouds
6:50 PM 51.8 °F - 46.4 °F 82% 29.71 in 6.2 mi South 10.4 mph - N/A   Scattered Clouds
7:20 PM 51.8 °F - 44.6 °F 76% 29.68 in 6.2 mi SSW 15.0 mph 26.5 mph N/A   Scattered Clouds
7:50 PM 51.8 °F - 44.6 °F 76% 29.68 in 6.2 mi SSW 12.7 mph - N/A   Partly Cloudy
8:20 PM 51.8 °F - 44.6 °F 76% 29.68 in 6.2 mi South 11.5 mph - N/A   Scattered Clouds
8:50 PM 51.8 °F - 44.6 °F 76% 29.68 in 6.2 mi South 11.5 mph - N/A   Scattered Clouds
9:20 PM 51.8 °F - 44.6 °F 76% 29.65 in 6.2 mi South 11.5 mph - N/A   Scattered Clouds
9:50 PM 51.8 °F - 44.6 °F 76% 29.65 in 6.2 mi South 12.7 mph - N/A   Scattered Clouds
10:20 PM 51.8 °F - 44.6 °F 76% 29.65 in 6.2 mi South 13.8 mph - N/A   Scattered Clouds
10:50 PM 51.8 °F - 44.6 °F 76% 29.62 in 6.2 mi South 11.5 mph - N/A   Mostly Cloudy
11:20 PM 50.0 °F - 44.6 °F 82% 29.62 in 6.2 mi South 11.5 mph - N/A   Partly Cloudy
11:50 PM 50.0 °F - 44.6 °F 82% 29.59 in 6.2 mi South 10.4 mph - N/A   Partly Cloudy